Previsão horária em Cerkwica

Hoje, 29 Julho, Quinta-feira

Tempo Temperatura Precipitação Vento Pressão Humidade
00:00 +18°C° 0.1 mm 4 m/s 754 mmHg 85%
01:00 +16°C° 0 mm 5 m/s 754 mmHg 88%
02:00 +16°C° 0 mm 5 m/s 754 mmHg 90%
03:00 +15°C° 0 mm 5 m/s 754 mmHg 91%
04:00 +15°C° 0 mm 5 m/s 754 mmHg 93%
05:00 +16°C° 0 mm 5 m/s 754 mmHg 85%
06:00 +19°C° 0 mm 5 m/s 754 mmHg 77%
07:00 +20°C° 0 mm 5 m/s 754 mmHg 67%
08:00 +21°C° 0.2 mm 6 m/s 754 mmHg 60%
09:00 +23°C° 0.2 mm 7 m/s 754 mmHg 53%
10:00 +24°C° 0.2 mm 8 m/s 754 mmHg 45%
11:00 +24°C° 0.1 mm 8 m/s 753 mmHg 44%
12:00 +24°C° 0.1 mm 8 m/s 753 mmHg 43%
13:00 +26°C° 0.1 mm 9 m/s 753 mmHg 41%
14:00 +23°C° 0 mm 8 m/s 753 mmHg 43%
15:00 +22°C° 0 mm 8 m/s 754 mmHg 46%
16:00 +21°C° 0 mm 7 m/s 754 mmHg 48%
17:00 +21°C° 0 mm 7 m/s 754 mmHg 49%
18:00 +21°C° 0 mm 7 m/s 754 mmHg 49%
19:00 +20°C° 0 mm 7 m/s 754 mmHg 49%
20:00 +18°C° 0 mm 7 m/s 754 mmHg 55%
21:00 +17°C° 0 mm 7 m/s 754 mmHg 60%
22:00 +16°C° 0 mm 7 m/s 754 mmHg 65%
23:00 +15°C° 0 mm 7 m/s 754 mmHg 69%

Amanhã, 30 Julho, Sexta-feira

Tempo Temperatura Precipitação Vento Pressão Humidade
00:00 +14°C° 0 mm 7 m/s 754 mmHg 73%
01:00 +12°C° 0 mm 7 m/s 754 mmHg 76%
02:00 +12°C° 0 mm 7 m/s 754 mmHg 78%
03:00 +12°C° 0 mm 7 m/s 753 mmHg 80%
04:00 +12°C° 0 mm 7 m/s 753 mmHg 82%
05:00 +13°C° 0 mm 8 m/s 753 mmHg 76%
06:00 +15°C° 0 mm 8 m/s 753 mmHg 69%
07:00 +16°C° 0 mm 9 m/s 753 mmHg 63%
08:00 +18°C° 0 mm 9 m/s 753 mmHg 57%
09:00 +21°C° 0 mm 10 m/s 753 mmHg 51%
10:00 +22°C° 0 mm 10 m/s 753 mmHg 45%
11:00 +23°C° 0 mm 10 m/s 752 mmHg 43%
12:00 +24°C° 0 mm 9 m/s 752 mmHg 41%
13:00 +24°C° 0 mm 9 m/s 752 mmHg 39%
14:00 +26°C° 0 mm 9 m/s 752 mmHg 39%
15:00 +26°C° 0 mm 8 m/s 752 mmHg 39%
16:00 +26°C° 0 mm 7 m/s 752 mmHg 39%
17:00 +24°C° 0 mm 7 m/s 752 mmHg 43%
18:00 +23°C° 0 mm 6 m/s 752 mmHg 47%
19:00 +22°C° 0 mm 5 m/s 752 mmHg 52%
20:00 +20°C° 0 mm 5 m/s 752 mmHg 58%
21:00 +19°C° 0 mm 4 m/s 752 mmHg 65%
22:00 +17°C° 0 mm 3 m/s 752 mmHg 71%
23:00 +17°C° 0 mm 3 m/s 752 mmHg 72%

Depois de amanhã, 31 Julho, Sábado

Tempo Temperatura Precipitação Vento Pressão Humidade
00:00 +16°C° 0 mm 3 m/s 752 mmHg 73%
01:00 +16°C° 0 mm 3 m/s 751 mmHg 74%
02:00 +16°C° 0.1 mm 3 m/s 751 mmHg 74%
03:00 +16°C° 0.1 mm 3 m/s 751 mmHg 74%
04:00 +17°C° 0.1 mm 4 m/s 751 mmHg 74%
05:00 +16°C° 0.2 mm 5 m/s 750 mmHg 75%
06:00 +17°C° 0.2 mm 5 m/s 750 mmHg 75%
07:00 +19°C° 0.2 mm 6 m/s 750 mmHg 76%
08:00 +21°C° 0 mm 7 m/s 750 mmHg 66%
09:00 +23°C° 0 mm 7 m/s 750 mmHg 56%
10:00 +24°C° 0 mm 7 m/s 750 mmHg 46%
11:00 +24°C° 0.1 mm 8 m/s 750 mmHg 46%
12:00 +24°C° 0.1 mm 8 m/s 750 mmHg 45%
13:00 +24°C° 0.1 mm 9 m/s 750 mmHg 44%
14:00 +23°C° 0 mm 9 m/s 750 mmHg 45%
15:00 +23°C° 0 mm 9 m/s 750 mmHg 46%
16:00 +23°C° 0 mm 10 m/s 750 mmHg 47%
17:00 +22°C° 0.1 mm 10 m/s 750 mmHg 52%
18:00 +21°C° 0.1 mm 10 m/s 750 mmHg 57%
19:00 +21°C° 0.1 mm 10 m/s 750 mmHg 61%
20:00 +19°C° 0.1 mm 9 m/s 750 mmHg 66%
21:00 +18°C° 0.1 mm 9 m/s 751 mmHg 70%
22:00 +17°C° 0.1 mm 8 m/s 751 mmHg 75%
23:00 +17°C° 0.1 mm 8 m/s 751 mmHg 79%

1 Agosto, Domingo

Tempo Temperatura Precipitação Vento Pressão Humidade
00:00 +16°C° 0.1 mm 8 m/s 751 mmHg 84%
01:00 +15°C° 0.1 mm 7 m/s 752 mmHg 89%
02:00 +15°C° 0 mm 7 m/s 752 mmHg 88%
03:00 +14°C° 0 mm 7 m/s 752 mmHg 88%
04:00 +14°C° 0 mm 6 m/s 752 mmHg 88%
05:00 +15°C° 0 mm 6 m/s 752 mmHg 83%
06:00 +15°C° 0 mm 6 m/s 753 mmHg 78%
07:00 +16°C° 0 mm 7 m/s 753 mmHg 73%
08:00 +17°C° 0 mm 6 m/s 753 mmHg 66%
09:00 +20°C° 0 mm 6 m/s 753 mmHg 59%
10:00 +21°C° 0 mm 6 m/s 753 mmHg 52%
11:00 +21°C° 0 mm 6 m/s 753 mmHg 49%
12:00 +22°C° 0 mm 6 m/s 753 mmHg 46%
13:00 +23°C° 0 mm 6 m/s 753 mmHg 43%
14:00 +23°C° 0 mm 6 m/s 753 mmHg 43%
15:00 +23°C° 0 mm 5 m/s 753 mmHg 44%
16:00 +22°C° 0 mm 5 m/s 754 mmHg 44%
17:00 +22°C° 0 mm 5 m/s 754 mmHg 49%
18:00 +21°C° 0 mm 5 m/s 754 mmHg 53%
19:00 +20°C° 0 mm 4 m/s 754 mmHg 58%
20:00 +18°C° 0 mm 4 m/s 754 mmHg 65%
21:00 +17°C° 0 mm 4 m/s 754 mmHg 71%
22:00 +15°C° 0 mm 4 m/s 754 mmHg 78%
23:00 +15°C° 0 mm 4 m/s 754 mmHg 79%

2 Agosto, Segunda-feira

Tempo Temperatura Precipitação Vento Pressão Humidade
00:00 +14°C° 0 mm 4 m/s 754 mmHg 79%
01:00 +14°C° 0 mm 4 m/s 754 mmHg 80%
02:00 +14°C° 0 mm 4 m/s 754 mmHg 80%
03:00 +14°C° 0 mm 4 m/s 754 mmHg 80%
04:00 +14°C° 0 mm 4 m/s 754 mmHg 79%
05:00 +15°C° 0 mm 4 m/s 754 mmHg 75%
06:00 +17°C° 0 mm 4 m/s 754 mmHg 70%
07:00 +18°C° 0 mm 4 m/s 754 mmHg 65%
08:00 +19°C° 0 mm 4 m/s 755 mmHg 65%
09:00 +19°C° 0 mm 4 m/s 755 mmHg 64%
10:00 +19°C° 0 mm 4 m/s 755 mmHg 64%
11:00 +18°C° 0.2 mm 4 m/s 755 mmHg 70%
12:00 +17°C° 0.2 mm 4 m/s 755 mmHg 76%
13:00 +15°C° 0.2 mm 4 m/s 756 mmHg 81%
14:00 +18°C° 0 mm 4 m/s 756 mmHg 74%
15:00 +19°C° 0 mm 4 m/s 755 mmHg 66%
16:00 +21°C° 0 mm 4 m/s 755 mmHg 58%
17:00 +20°C° 0 mm 3 m/s 755 mmHg 59%
18:00 +20°C° 0 mm 3 m/s 755 mmHg 59%
19:00 +19°C° 0 mm 3 m/s 755 mmHg 60%
20:00 +18°C° 0 mm 3 m/s 755 mmHg 66%
21:00 +15°C° 0 mm 4 m/s 756 mmHg 71%
22:00 +14°C° 0 mm 4 m/s 756 mmHg 77%
23:00 +14°C° 0.2 mm 5 m/s 756 mmHg 81%

3 Agosto, Terça-feira

Tempo Temperatura Precipitação Vento Pressão Humidade
00:00 +13°C° 0.2 mm 5 m/s 756 mmHg 84%
01:00 +13°C° 0.2 mm 5 m/s 756 mmHg 88%
02:00 +13°C° 0.2 mm 5 m/s 756 mmHg 90%
03:00 +12°C° 0.2 mm 5 m/s 756 mmHg 91%
04:00 +12°C° 0.2 mm 5 m/s 756 mmHg 92%
05:00 +14°C° 0.1 mm 6 m/s 757 mmHg 86%
06:00 +15°C° 0.1 mm 6 m/s 757 mmHg 80%
07:00 +16°C° 0.1 mm 6 m/s 757 mmHg 74%
08:00 +17°C° 0.1 mm 6 m/s 757 mmHg 66%
09:00 +20°C° 0.1 mm 6 m/s 757 mmHg 57%
10:00 +21°C° 0.1 mm 6 m/s 757 mmHg 49%
11:00 +22°C° 0 mm 6 m/s 757 mmHg 46%
12:00 +22°C° 0 mm 6 m/s 757 mmHg 43%
13:00 +23°C° 0 mm 6 m/s 757 mmHg 40%
14:00 +23°C° 0 mm 5 m/s 757 mmHg 42%
15:00 +22°C° 0 mm 5 m/s 757 mmHg 43%
16:00 +22°C° 0 mm 5 m/s 757 mmHg 45%
17:00 +21°C° 0 mm 4 m/s 757 mmHg 49%
18:00 +20°C° 0 mm 3 m/s 757 mmHg 53%
19:00 +19°C° 0 mm 3 m/s 757 mmHg 58%
20:00 +18°C° 0 mm 2 m/s 757 mmHg 63%
21:00 +16°C° 0 mm 2 m/s 757 mmHg 69%
22:00 +15°C° 0 mm 1 m/s 757 mmHg 74%
23:00 +15°C° 0 mm 1 m/s 758 mmHg 75%
Mostrar mais

Necessitamos do seu Consentimento

A Meteoprog e os seus Fornecedores de Serviços podem armazenar e aceder a dados pessoais como cookies, identificadores do dispositivo ou outras tecnologias semelhantes existentes no seu dispositivo e processar estes dados para personalizar conteúdos e anúncios, assim como funcionalidades nas redes sociais e análise de tráfego.

  • Armazenar e/ou aceder a informações no seu dispositivo

    Os cookies, identificadores do dispositivo ou outras informações podem ser armazenados ou acedidos no seu dispositivo, para os fins acima indicados.

  • Anúncios e conteúdos personalizados, medição de anúncios e conteúdos, dados sobre o público-alvo e desenvolvimento de produtos

    Os anúncios e os conteúdos podem ser personalizados com base num perfil. Podem ser adicionados dados adicionais para uma maior personalização dos anúncios e dos conteúdos. A eficácia dos anúncios e dos conteúdos pode ser medida. Podem ser obtidas informações sobre o público que visualizou os anúncios e os conteúdos. Estes dados podem ser usados para desenvolver ou melhorar sistemas, softwares ou a experiência do utilizador.

Ao clicar em "Eu concordo”, permitirá o uso de cookies, identificadores do dispositivo e web beacons mencionados ou outras tecnologias semelhantes. As configurações do navegador do seu dispositivo podem ser alteradas.

Para certos fins, podem ser invocados interesses legítimos ao invés de consentimento. Pode ler mais informação sobre este assunto na nossa Política de Privacidade e Cookies.